NOAA 16 DEB, 41159

Orbit data source: Space-Track

NOAA 16 DEB, 41159 is space debris in SSO originally from a launch on Thu, 21 Sep 2000 UTC launched from the Air Force Western Test Range (AFWTR). Debris objects in space refer to the collection of defunct objects orbiting the Earth. Examples of debris include non-operational satellites, rocket bodies, and fragments generated from explosions, collisions, or faulty payload assembly.

Loading next visibility...
Identifier
41159, 2000-055CS
Orbit
SSO
Country
Flag of USUS
Related business
Manufacturer
Unknown
Mission
Spacecraft
Bus & Motor
Unknown
Mass
Unknown
Launch date (UTC)
2000-09-21 (25 years ago)
Launch vehicle
Unknown
Launch site
Air Force Western Test Range (AFWTR)
Object type
Payload
Rocket body
Debris
Shape & HBR
Unknown shape, 0.1 m
Radar Cross Section
Small (<0.1 m²)

Expand to show TLE details & history
Last TLE update: 6 hours ago

TLE from 6 hours ago
0 NOAA 16 DEB
1 41159U 00055CS  25291.15796505  .00005957  00000-0  22633-2 0  9991
2 41159  98.6238   4.3228 0021359 172.7088 187.4409 14.31236137512169
Epoch: 2025-10-18T03:47Z
TLE epoch observation values (Epoch: 2025-10-18T03:47:28.180Z)
Latitude
-0.00007°
Longitude
-79.43761°
Altitude
805.715 km
Speed
7.443 km/s
True Right ascension
00h 17m 17s
True Declination
0° 00' 00"
Sunlit
Object was in full shadow at epoch
Visualization orbit readout
Latitude
Unknown
Longitude
Unknown
Altitude
Unknown
Speed
Unknown
Apparent Right ascension
Unknown
Apparent Declination
Unknown
Sunlit
N/A
Visualization observer readout
Local Sidereal Time
04:29:07
Azimuth
Unknown
Elevation
Unknown
Doppler factor
Unknown
Orbital elements
Apogee altitude
800.041 km
Perigee altitude
769.442 km
Semi-major axis
7,162.878 km
Eccentricity
0.00214
Inclination
98.6238°
RAAN
4.3228°
Arg. of periapsis
172.7088°
True anomaly
187.40929°
Mean anomaly
187.4409°
Eccentric anomaly
187.42509°
Mean motion
3.58024 °/min
Orbital period
100.55 mins
BSTAR
0.0022633
Loading maneuver chart data...
Computing Atmospheric mass density...
Loading historical data...
Loading historical data...
Loading historical data...
Loading historical data...
Loading historical data...
Loading historical data...
Loading historical data...

Documentation

Showing up to 5 results
|